Location: *
(20.9330°N, 49.2180°E)
Time: 02:27:01
(UTC+00:00)

Daily predictions for brighter satellites

Satellite Brightness Start Highest point End
(mag) Time Altitude Azimuth Time Altitude Azimuth Time Altitude Azimuth
Cosmos 1980 3.7 00:06:29 10° NNW 00:12:09 76° ENE 00:17:48 10° SSE
GPS 2-17 Rocket1 4.1 00:17:31 38° ESE 00:17:31 38° ESE 00:20:26 10° ESE
Hubble Space Telescope 2.4 00:17:44 29° ESE 00:17:44 29° ESE 00:20:15 10° E
SEDSat Delta rocket 3.7 00:22:32 60° SSE 00:22:46 61° SSE 00:28:41 10° ENE
PSLV R/B 4.2 00:19:17 10° N 00:22:27 49° N 00:22:27 49° N
CZ-4C R/B 1.8 00:25:09 76° SE 00:25:19 77° ESE 00:30:28 10° NNE
Centaur AC-112 3.9 00:28:29 22° NNE 00:28:29 22° NNE 00:30:49 10° ENE
Cosmos 1934 Rocket 3.8 00:26:09 45° S 00:28:13 83° W 00:34:26 10° N
Cosmos 2344 4.0 00:24:52 21° S 00:30:24 60° ESE 00:37:47 10° NE
Cosmos 1486 Rocket 4.3 00:26:41 10° NNW 00:30:52 51° NW 00:30:52 51° NW
Helios 1A Rocket 4.3 00:32:14 10° NNE 00:35:56 35° E 00:38:38 16° SSE
Cosmos 1758 4.2 00:32:55 10° N 00:36:54 50° E 00:40:51 10° SSE
Skynet4D Del rocket 4.5 00:34:14 33° WNW 00:36:56 52° N 00:42:52 10° ENE
Cosmos 1733 3.9 00:35:02 10° N 00:37:40 44° N 00:37:40 44° N
Cosmos 2237 Rocket 2.1 00:37:32 10° NNW 00:43:02 57° WSW 00:48:30 10° S
USA 234 3.2 00:43:02 10° SE 00:49:35 87° NE 00:56:08 10° NW
CZ-4B R/B 3.0 00:47:39 10° NNE 00:51:25 70° E 00:53:35 25° S
Cosmos 405 Rocket 4.1 00:49:20 10° NNE 00:52:46 36° E 00:56:11 10° SSE
Delta 2 Rocket 4.1 00:53:51 28° NNW 00:54:00 29° NNW 00:57:11 10° NE
FUSE 3.9 00:53:00 41° WSW 00:54:51 74° SSE 01:00:14 10° ENE
Cosmos 1441 Rocket 3.4 00:52:52 10° NNW 00:56:15 47° WNW 00:56:15 47° WNW
Cosmos 968 Rocket 3.4 00:52:46 10° NNW 00:58:03 90° ENE 01:03:16 10° SSE
Cosmos 1606 Rocket 3.5 00:54:23 10° N 00:58:50 82° W 01:03:18 10° S
Delta 168 2.0 00:59:52 68° W 01:00:12 82° NNW 01:03:16 10° ENE
SL-16 R/B 2.5 00:56:51 10° N 01:02:31 68° ENE 01:08:07 10° SSE
Meteor 1-31 Rocket 2.8 00:59:17 10° NNE 01:03:09 79° ESE 01:06:31 14° S
PSLV R/B 4.2 01:00:06 10° NNE 01:04:03 66° E 01:08:04 10° S
COSMOS 2441 4.5 00:59:24 10° NNE 01:04:11 76° E 01:08:58 10° S
ERBS 2.1 01:03:50 23° NW 01:05:47 69° WSW 01:09:09 10° SSE
CZ-4B R/B 4.0 01:05:57 10° N 01:10:23 84° WNW 01:14:38 10° SSW
Delta 7925 Rocket 3.5 01:08:36 27° W 01:11:03 64° NNW 01:16:16 10° ENE
Centaur Rocket 3.3 01:12:44 19° SSE 01:12:44 19° SSE 01:14:00 10° ESE
Cosmos 44 3.3 01:11:05 10° NNW 01:15:41 73° ENE 01:20:02 10° SSE
GMS 1 Rocket 4.4 01:13:42 27° W 01:16:02 71° NNW 01:19:56 10° ENE
Cosmos 1726 Rocket 3.5 01:11:44 10° NNW 01:16:06 61° W 01:20:28 10° S
Cosmos 292 Rocket 3.6 01:12:36 11° SSW 01:17:11 77° WNW 01:21:56 10° N
Cosmos 1674 4.2 01:14:05 10° SSE 01:17:33 37° E 01:21:02 10° NNE
BREEZE-M DEB (TANK) 2.2 01:19:48 35° W 01:20:25 47° NW 01:23:20 10° NNE
Cosmos 1707 4.1 01:20:43 21° W 01:20:44 21° W 01:23:42 10° NNW
MOS 1-B 4.3 01:16:03 10° N 01:21:50 80° WNW 01:27:36 10° SSW
Haruka 3.3 01:17:33 10° WNW 01:23:58 54° NNE 01:27:11 10° E
OAO 2 Rocket 3.4 01:19:02 10° WNW 01:24:21 84° SSW 01:29:37 10° ESE
Cosmos 2228 3.2 01:20:45 10° NNW 01:24:54 48° W 01:29:06 10° SSW
Cosmos 1605 Rocket 4.5 01:20:37 10° SSW 01:26:08 37° W 01:31:47 10° NNW
IRIDIUM 104 4.2 01:22:02 10° N 01:27:14 75° W 01:32:25 10° S
Cosmos 1953 2.4 01:23:28 10° NNW 01:27:18 50° W 01:31:09 10° SSW
Cosmos 1470 3.4 01:24:12 10° NNW 01:27:40 32° W 01:31:10 10° SSW
Kakehashi 3.9 01:24:09 17° WSW 01:28:35 85° NNW 01:38:39 10° ENE
Okean O Rocket 2.2 01:24:20 10° NNE 01:28:38 59° E 01:32:58 10° S
Meteor PRIRODA 3.6 01:25:15 10° N 01:28:50 58° WNW 01:32:23 10° SSW
CZ-4B DEB 4.3 01:24:13 10° NNE 01:29:47 87° ESE 01:35:20 10° SSW
GPS 2-14 Rocket1 2.6 01:27:39 18° W 01:30:30 88° S 01:34:36 10° E
USA 229 DEB 4.3 01:26:04 10° NW 01:32:53 40° WSW 01:39:49 10° S
USA 229 4.3 01:26:09 10° NW 01:33:00 40° WSW 01:39:57 10° S
Cosmos 2263 Rocket 2.4 01:29:46 10° SSW 01:35:11 51° WNW 01:40:35 10° N
NOSS 3-1 (A) 4.3 01:27:34 10° NNW 01:35:55 81° WSW 01:44:48 10° SSE
IRIDIUM 114 4.4 01:31:15 10° N 01:36:22 58° W 01:41:27 10° SSW
Cosmos 1626 Rocket 3.7 01:32:15 10° SSW 01:36:32 53° W 01:40:52 10° N
NOSS 3-3 (A) 3.8 01:31:08 10° SSW 01:36:50 75° WNW 01:42:54 10° NNE
NOSS 3-3 (C) 3.8 01:31:14 10° SSW 01:36:56 76° WNW 01:43:00 10° NNE
KORONAS-FOTON 4.2 01:35:32 10° S 01:39:18 66° E 01:43:07 10° NNE
Cosmos 2058 Rocket 3.3 01:35:32 10° NNW 01:39:51 48° W 01:44:08 10° SSW
BREEZE M DEB (TANK) 2.5 01:35:16 10° NW 01:40:13 54° SW 01:42:33 10° SSE
IDEFIX/ARIANE 42P 3.9 01:39:54 10° NNW 01:43:36 20° WNW 01:47:19 10° WSW
SL-4 R/B 2.1 01:41:30 10° SW 01:45:37 82° NW 01:50:06 10° NE
NOSS 3-1 (C) 4.5 01:37:52 10° NW 01:45:47 47° WSW 01:54:05 10° S
GPS 2-15 Rocket1 3.2 01:42:27 11° W 01:47:12 79° S 01:52:09 10° E
ASTRO E2 2.9 01:47:48 10° WSW 01:51:44 61° NNW 01:55:41 10° ENE
ASC 2 Rocket 4.5 01:48:00 10° W 01:54:10 85° NNW 02:03:51 10° ENE
Delta 128 4.0 01:50:53 10° WNW 01:55:19 60° NNE 01:59:49 10° E
Timation 1 Rocket 4.4 01:51:05 10° SSW 01:57:02 86° WNW 02:03:02 10° NNE
Meteor 1-24 Rocket 3.7 01:51:51 10° SSW 01:57:20 65° W 02:02:40 10° N
Hubble Space Telescope 1.2 01:53:29 10° W 01:57:32 54° NNW 02:01:36 10° ENE
PAYLOAD B 4.5 01:52:51 10° N 01:58:16 51° WNW 02:03:39 10° SSW
Cosmos 1758 Rocket 4.1 01:54:24 10° S 01:58:48 67° E 02:03:15 10° NNE
GPS 2-17 Rocket1 3.8 01:55:01 10° W 01:59:11 37° SSW 02:03:28 10° SE
ALOS 4.2 01:56:43 10° NE 02:00:57 34° E 02:05:11 10° SSE
CZ-4B R/B 3.3 01:55:26 10° N 02:01:01 66° WNW 02:06:30 10° SSW
